This demonstration page uses our WeatherBlox Daily Observations layout. Learn more.

39.92423, -83.80882

Hourly Observations for August 21, 2017

Temp ( °F °C ) Dew Point ( °F °C ) Humidity (%) Winds ( mph kmh ) Pressure ( in mb ) Visibility ( mi km ) Precip ( " mm )
12:56 am 00:56 Clear 67 19.4 65 18.3 93 93 Calm 30.12 1020 10 16.0934 0 0
1:56 am 01:56 Clear 67 19.4 65 18.3 93 93 Calm 30.12 1020 10 16.0934 0 0
2:56 am 02:56 Mostly Cloudy 67 19.4 65 18.3 93 93 S 3 6 30.13 1020 10 16.0934 0 0
3:56 am 03:56 Partly Cloudy 71 21.7 66 18.9 84 84 Calm 30.11 1020 10 16.0934 0 0
4:56 am 04:56 Mostly Cloudy 71 21.7 67 19.4 87 87 SSW 3 6 30.11 1020 10 16.0934 0 0
5:56 am 05:56 Partly Cloudy 71 21.7 67 19.4 87 87 SSW 8 13 30.12 1020 10 16.0934 0 0
6:56 am 06:56 Mostly Sunny 71 21.7 67 19.4 87 87 SSW 5 7 30.14 1021 10 16.0934 0 0
7:56 am 07:56 Sunny 72 22.2 68 20 87 87 SW 7 11 30.15 1021 10 16.0934 0 0
8:56 am 08:56 Sunny 75 23.9 70 21.1 84 84 WSW 6 9 30.15 1021 10 16.0934 0 0
9:56 am 09:56 Sunny 79 26.1 72 22.2 79 79 WSW 5 7 30.15 1021 10 16.0934 0 0
10:56 am 10:56 Sunny 82 27.8 73 22.8 74 74 VRB 5 7 30.16 1021 10 16.0934 0 0
11:56 am 11:56 Sunny 85 29.4 70 21.1 61 61 SW 9 15 30.15 1021 10 16.0934 0 0
12:56 pm 12:56 Sunny 86 30 71 21.7 61 61 SSW 9 15 30.14 1021 10 16.0934 0 0
1:56 pm 13:56 Sunny 83 28.3 69 20.6 63 63 undefined N/A 30.14 1021 10 16.0934 0 0
2:56 pm 14:56 Sunny 81 27.2 71 21.7 72 72 S 6 9 30.11 1020 10 16.0934 0 0
3:56 pm 15:56 Mostly Cloudy 87 30.6 72 22.2 61 61 SSW 6 9 30.09 1019 10 16.0934 0 0
4:56 pm 16:56 Partly Cloudy 86 30 70 21.1 59 59 SSW 9 15 30.09 1019 10 16.0934 0 0
5:56 pm 17:56 Mostly Cloudy 83 28.3 72 22.2 70 70 SSW 3 6 30.09 1019 10 16.0934 0 0
6:56 pm 18:56 Mostly Sunny 81 27.2 73 22.8 77 77 SSW 3 6 30.09 1019 10 16.0934 0 0
7:56 pm 19:56 Mostly Sunny 80 26.7 71 21.7 74 74 S 3 6 30.07 1018 10 16.0934 0 0
8:56 pm 20:56 Clear 78 25.6 71 21.7 79 79 SSE 6 9 30.07 1018 10 16.0934 0 0
9:56 pm 21:56 Clear 76 24.4 71 21.7 85 85 Calm 30.09 1019 10 16.0934 0 0
10:56 pm 22:56 Clear 75 23.9 70 21.1 84 84 S 3 6 30.06 1018 10 16.0934 0 0
11:56 pm 23:56 Clear 75 23.9 69 20.6 82 82 S 6 9 30.06 1018 10 16.0934 0 0

Powered by AerisWeather